Wind_Speed
17 13 12 10 8 10 9 8 7 8 10 13 16 17 14 16 16 16 16 16 16 17 18 19 19 19 19 18 19 20 20 20 20 19 18 18 19 19 20 21 21 20 21
13 11 6 5 9 10 11 9 9 10 12 11 11 13 13 18 17 17 17 18 20 20 20 21 21 21 20 20 21 21 21 20 20 20 21 21 20 20 20 20 21 21 22
14 9 7 1 5 7 11 11 11 11 12 14 15 16 21 21 22 21 21 21 21 22 21 22 23 23 22 21 22 22 22 22 22 23 24 23 22 20 19 19 19 21 22
15 12 8 4 3 6 8 8 8 9 11 14 16 20 22 22 23 23 24 24 25 25 24 23 23 23 23 22 23 23 24 24 25 25 25 23 22 21 21 21 20 21 21
14 13 14 11 9 8 8 11 11 12 12 13 15 19 23 25 25 25 26 26 26 25 24 25 24 25 26 25 26 25 26 26 27 26 26 26 25 24 24 24 23 22 21
14 17 15 14 11 13 16 18 18 17 16 16 16 18 21 24 25 26 27 27 27 27 27 27 28 28 28 29 28 29 28 28 27 27 26 26 25 25 25 26 26 26 23
13 14 15 13 10 12 15 17 16 15 18 20 20 22 22 25 25 26 28 28 30 30 30 29 29 30 30 31 31 31 30 28 28 28 27 28 27 27 27 27 28 26 25
14 14 15 12 10 11 14 16 18 21 21 21 21 21 22 25 26 28 29 29 31 32 32 33 32 33 33 34 33 33 33 31 30 30 30 30 30 29 29 29 29 28 28
15 14 13 12 11 12 15 16 17 20 21 23 24 25 24 26 23 24 29 31 32 34 35 34 34 35 35 36 36 35 35 34 33 32 33 32 31 32 31 31 31 29 30
15 16 17 18 19 20 21 18 19 21 22 24 26 25 27 29 30 30 32 33 34 36 35 35 34 37 39 40 40 39 39 38 36 35 35 34 34 33 32 32 30 31 30
20 21 28 30 27 26 23 21 20 22 26 25 24 26 32 35 39 32 33 35 35 37 39 41 43 41 39 42 45 44 44 42 40 38 38 36 36 35 34 34 31 31 31
25 28 31 31 29 27 25 24 24 25 27 29 30 36 37 40 41 40 40 39 41 42 42 46 48 49 49 50 50 50 49 47 44 41 40 39 40 38 37 37 36 33 32
30 32 34 33 32 29 24 24 26 27 27 26 30 36 41 42 42 44 47 47 47 47 49 49 50 53 54 56 63 56 50 50 48 45 42 41 42 39 38 37 37 36 35
35 34 34 33 31 25 21 21 21 20 21 23 24 25 29 33 38 43 46 48 49 51 53 53 53 53 54 53 48 60 50 51 50 49 46 43 43 42 39 38 38 36 35
35 35 34 27 20 21 22 22 23 25 25 26 29 32 34 36 38 39 39 44 53 55 54 54 56 55 51 57 43 51 49 52 50 50 45 42 44 44 42 40 38 37 34
35 38 31 23 24 24 24 23 24 27 30 32 36 39 42 43 43 44 45 46 45 50 57 57 55 53 52 53 39 41 48 53 51 49 48 45 46 45 45 46 43 39 35
33 29 19 22 24 25 26 29 31 33 36 39 44 46 45 45 46 47 47 47 49 49 50 57 57 55 52 52 52 48 47 54 50 51 50 49 51 52 53 52 49 43 39
30 19 21 25 28 26 28 32 35 37 39 44 45 46 45 45 44 44 48 48 48 49 51 52 58 57 55 53 54 56 51 54 54 53 49 51 51 52 57 61 53 48 43
22 21 24 26 27 29 31 31 34 37 39 40 41 42 43 43 43 44 43 44 48 48 49 52 55 57 60 58 56 56 59 55 59 57 58 61 54 52 45 58 57 52 48
22 22 25 27 30 33 35 37 39 38 40 41 42 41 43 44 42 41 39 39 43 47 45 43 48 55 55 60 62 58 58 59 58 56 57 55 48 52 51 57 54 51 49
24 25 27 28 30 34 34 34 37 39 39 40 40 42 42 43 42 42 42 39 38 44 45 44 39 36 37 45 55 62 61 60 61 57 58 56 53 51 43 47 45 43 49
24 25 25 28 32 34 34 36 38 41 41 41 42 43 45 43 42 44 44 42 39 39 46 45 43 42 41 40 38 46 55 62 62 61 58 54 53 52 50 50 41 45 54
23 23 27 31 34 35 36 39 41 44 44 43 44 44 46 43 45 46 44 38 36 37 38 45 45 44 42 40 39 37 41 45 56 62 59 58 54 57 55 57 52 42 52
22 25 29 34 36 37 39 40 42 43 42 43 44 46 46 44 45 44 38 32 32 35 36 35 41 44 43 41 41 39 38 39 41 50 62 60 57 56 58 56 53 47 52
24 28 32 35 37 39 41 42 44 45 45 45 45 45 42 43 45 42 36 35 35 34 32 31 32 35 37 37 38 39 38 37 37 40 47 56 59 57 55 57 57 49 52
25 30 34 37 40 41 43 44 46 46 45 45 44 41 40 42 46 40 37 35 32 29 27 25 25 25 28 30 32 32 34 31 33 36 38 43 52 55 55 55 57 58 55
Wind_Direction
352 334 315 287 298 279 264 265 276 273 238 223 219 222 234 235 227 230 235 235 237 242 244 248 252 255 260 262 259 254 252 251 254 255 257 257 255 253 252 252 252 250 247
357 349 321 342 327 293 276 262 261 260 251 221 216 200 248 239 240 234 233 233 235 237 239 243 248 251 254 258 256 254 253 253 253 255 255 254 252 253 253 253 253 253 251
345 358 11 34 294 276 269 263 261 255 249 233 217 217 220 224 230 232 232 232 237 243 247 250 252 253 252 252 251 251 252 252 251 250 250 248 248 250 255 256 253 248 247
8 5 20 5 241 233 246 249 259 267 268 257 241 228 223 225 231 232 234 233 235 237 239 245 249 253 252 250 249 248 251 252 251 251 252 253 252 248 249 252 252 254 250
3 348 0 337 313 306 282 281 273 262 250 247 249 244 235 231 235 239 240 240 238 237 240 241 243 245 248 246 248 247 248 250 251 252 250 249 250 248 249 251 253 255 247
15 2 5 352 340 318 299 294 284 272 263 256 252 249 249 248 244 244 245 246 247 244 241 240 240 243 246 249 249 250 251 252 256 255 256 257 258 258 254 255 256 254 246
13 25 31 15 347 320 311 309 303 297 280 271 262 255 250 247 248 248 245 245 246 246 246 243 245 247 248 251 254 253 254 253 255 257 258 258 258 256 254 254 256 257 245
360 8 21 17 356 324 310 306 293 294 294 287 280 279 274 265 257 256 258 255 254 249 248 246 244 245 249 250 251 255 255 254 251 252 254 255 255 254 253 252 253 249 239
3 5 11 360 340 319 307 304 297 286 277 266 265 264 268 271 273 261 256 261 263 263 257 251 249 250 253 254 254 254 256 256 256 253 253 255 255 253 252 254 254 250 241
14 16 7 1 348 338 322 296 294 302 293 279 278 269 257 260 270 273 254 253 253 258 261 259 256 255 253 252 252 251 251 253 254 256 256 255 255 254 253 252 255 254 246
359 354 341 341 338 328 318 305 301 297 296 297 280 280 272 268 265 270 265 254 256 257 259 262 267 266 257 252 252 251 250 248 248 251 254 254 255 254 253 253 253 254 250
355 349 344 340 340 333 320 310 307 302 294 291 288 287 281 276 278 273 269 263 261 262 266 267 265 261 260 256 251 246 246 247 246 247 250 252 253 254 254 251 250 248 249
348 346 345 340 334 330 321 312 302 301 298 287 288 287 285 284 282 279 276 273 270 264 265 266 267 265 265 262 254 246 243 246 248 246 246 251 254 256 255 250 245 241 237
347 345 342 337 335 338 343 337 333 331 320 314 314 307 301 296 292 284 278 276 273 270 269 267 265 263 265 280 273 248 243 245 249 251 248 248 251 252 251 247 244 242 240
341 340 339 342 351 347 340 336 330 328 324 317 312 307 303 298 294 290 286 276 271 270 269 268 268 266 261 272 266 249 241 243 244 248 249 250 251 252 251 246 245 244 239
335 334 334 340 335 337 334 330 326 322 320 315 309 305 303 298 292 287 283 280 275 271 266 264 263 263 260 257 267 244 249 245 243 244 245 244 245 246 247 249 243 241 239
331 332 333 327 330 328 328 329 326 321 315 312 312 312 308 301 296 289 282 278 273 269 267 261 259 258 256 252 250 247 244 242 242 244 244 247 246 244 242 243 244 241 239
329 332 331 329 327 327 327 324 320 319 319 323 320 314 309 306 301 293 289 283 275 266 260 260 258 252 253 252 249 250 251 239 242 245 248 246 248 248 256 244 240 241 240
323 323 328 330 329 327 325 320 319 318 320 324 323 319 317 315 310 304 299 292 285 277 265 255 253 254 248 248 249 249 251 250 247 247 247 252 260 257 252 249 243 239 240
323 322 325 327 329 328 326 322 321 318 321 325 327 326 324 318 315 312 307 299 285 281 278 272 262 254 254 247 245 246 249 250 253 253 255 259 258 254 252 241 238 240 241
326 324 323 330 328 327 325 322 324 322 323 325 326 325 322 319 316 312 309 302 291 275 276 273 266 261 262 259 251 247 245 247 249 250 249 253 252 253 232 224 233 241 243
324 322 328 329 330 329 325 324 327 328 326 326 326 328 326 324 320 316 313 304 292 281 270 268 269 266 262 260 258 254 252 248 246 248 248 249 253 250 243 230 235 241 241
326 327 327 330 332 333 331 332 332 331 330 329 328 328 327 323 324 321 317 306 295 286 278 267 264 265 263 259 257 259 254 254 252 248 246 244 243 247 248 251 246 241 239
328 327 332 336 338 337 335 335 334 333 330 329 329 329 328 325 328 327 322 315 309 295 285 279 267 261 260 262 260 259 260 257 254 251 249 246 243 240 245 250 252 247 238
332 337 339 340 340 338 339 338 339 338 336 334 333 332 330 330 334 331 325 320 313 303 291 283 274 266 263 262 262 264 263 260 258 256 249 247 245 243 240 243 248 246 245
336 343 343 343 342 342 342 341 343 343 340 338 336 336 335 336 339 338 333 326 321 311 303 290 278 270 265 264 264 263 265 261 257 255 251 243 245 244 243 240 239 244 243
Height
5875 5876 5876 5875 5876 5876 5876 5876 5876 5876 5874 5875 5875 5876 5877 5877 5876 5877 5879 5880 5881 5882 5883 5883 5883 5886 5887 5888 5890 5890 5891 5891 5892 5892 5893 5895 5896 5896 5897 5898 5898 5899 5901
5873 5872 5873 5873 5873 5873 5873 5873 5872 5871 5870 5869 5871 5874 5874 5875 5874 5873 5873 5873 5874 5875 5876 5876 5877 5878 5880 5882 5884 5885 5886 5887 5887 5888 5889 5890 5891 5892 5893 5893 5894 5895 5896
5872 5870 5869 5869 5870 5871 5871 5869 5868 5866 5865 5865 5865 5866 5867 5867 5867 5867 5868 5869 5870 5872 5872 5873 5872 5872 5873 5875 5878 5879 5881 5882 5883 5884 5884 5885 5886 5887 5888 5889 5889 5891 5892
5874 5871 5867 5866 5867 5866 5866 5864 5864 5866 5865 5863 5862 5861 5860 5860 5862 5862 5862 5863 5865 5866 5866 5868 5867 5868 5869 5870 5871 5873 5875 5877 5878 5878 5880 5882 5882 5882 5883 5884 5884 5885 5886
5875 5872 5868 5866 5866 5868 5868 5867 5864 5862 5862 5861 5860 5859 5858 5857 5856 5858 5859 5860 5860 5859 5860 5862 5862 5862 5863 5863 5864 5866 5868 5870 5872 5874 5875 5876 5877 5877 5878 5878 5879 5880 5882
5875 5872 5868 5866 5865 5866 5866 5866 5864 5861 5858 5857 5857 5858 5858 5858 5856 5855 5855 5855 5856 5856 5856 5856 5856 5856 5856 5857 5858 5860 5862 5864 5867 5868 5870 5871 5872 5874 5874 5874 5875 5876 5877
5877 5873 5869 5867 5866 5865 5865 5864 5862 5861 5857 5855 5852 5852 5852 5851 5851 5849 5849 5848 5850 5851 5852 5851 5852 5852 5851 5852 5853 5854 5855 5858 5861 5862 5864 5865 5866 5868 5870 5871 5872 5873 5873
5875 5872 5869 5868 5867 5864 5861 5859 5859 5857 5855 5853 5851 5849 5847 5846 5846 5845 5844 5844 5844 5844 5845 5845 5845 5845 5846 5847 5847 5848 5849 5851 5854 5855 5857 5858 5860 5862 5863 5865 5866 5867 5868
5875 5872 5870 5869 5867 5865 5861 5859 5854 5850 5847 5845 5844 5843 5840 5836 5837 5838 5837 5838 5838 5839 5837 5838 5838 5839 5840 5840 5841 5841 5843 5844 5846 5849 5849 5851 5854 5855 5857 5859 5860 5862 5864
5874 5872 5871 5869 5867 5864 5861 5857 5852 5848 5844 5841 5840 5837 5836 5834 5831 5830 5829 5827 5827 5828 5827 5827 5827 5829 5830 5832 5832 5834 5834 5836 5839 5841 5843 5844 5845 5848 5851 5853 5855 5856 5860
5873 5871 5869 5866 5863 5859 5855 5852 5848 5845 5841 5838 5836 5834 5832 5829 5826 5824 5823 5821 5819 5818 5817 5816 5817 5816 5819 5820 5823 5824 5824 5826 5829 5831 5833 5836 5836 5840 5843 5846 5849 5850 5852
5871 5868 5866 5862 5858 5854 5851 5847 5843 5840 5837 5834 5832 5829 5827 5824 5820 5818 5816 5813 5812 5810 5810 5810 5810 5807 5806 5808 5810 5810 5811 5816 5818 5821 5823 5827 5827 5830 5834 5837 5840 5844 5847
5866 5863 5861 5856 5854 5849 5845 5841 5838 5835 5832 5829 5826 5823 5819 5815 5812 5809 5806 5803 5801 5800 5799 5798 5798 5798 5797 5797 5795 5796 5799 5804 5808 5811 5814 5817 5818 5820 5823 5826 5829 5832 5837
5861 5859 5856 5852 5847 5842 5838 5835 5832 5828 5826 5823 5819 5816 5812 5807 5803 5799 5796 5793 5790 5788 5787 5786 5785 5785 5786 5781 5779 5784 5787 5792 5797 5801 5804 5807 5808 5809 5812 5816 5819 5823 5828
5860 5856 5852 5848 5844 5840 5836 5832 5828 5824 5820 5817 5813 5809 5804 5799 5794 5789 5784 5780 5777 5776 5774 5773 5773 5773 5774 5770 5766 5771 5776 5781 5785 5789 5793 5798 5799 5801 5803 5805 5810 5813 5819
5857 5853 5847 5844 5840 5836 5832 5828 5823 5819 5815 5811 5806 5801 5795 5790 5784 5779 5773 5767 5764 5761 5759 5759 5759 5759 5761 5759 5760 5759 5765 5769 5773 5777 5781 5785 5788 5792 5794 5798 5800 5804 5808
5855 5849 5846 5842 5838 5832 5827 5821 5817 5813 5809 5804 5798 5792 5784 5778 5771 5765 5760 5754 5751 5746 5745 5744 5745 5746 5748 5749 5751 5753 5753 5758 5762 5766 5771 5775 5777 5780 5784 5788 5792 5796 5798
5851 5847 5843 5838 5833 5828 5823 5818 5813 5807 5801 5794 5787 5779 5772 5764 5758 5751 5743 5738 5735 5733 5731 5730 5729 5730 5733 5734 5738 5740 5742 5745 5750 5754 5758 5762 5765 5768 5772 5775 5781 5788 5789
5848 5843 5839 5833 5828 5824 5818 5813 5808 5802 5796 5789 5781 5771 5762 5753 5746 5737 5731 5724 5718 5715 5714 5714 5714 5715 5716 5719 5722 5726 5729 5732 5735 5740 5744 5748 5753 5756 5759 5764 5769 5775 5780
5844 5840 5835 5829 5823 5818 5812 5805 5799 5793 5787 5779 5770 5761 5752 5744 5735 5727 5720 5713 5706 5701 5699 5699 5699 5700 5701 5703 5706 5712 5714 5717 5721 5725 5730 5734 5738 5742 5745 5751 5759 5765 5770
5840 5836 5830 5825 5821 5815 5808 5801 5793 5785 5777 5768 5760 5751 5742 5733 5724 5716 5707 5701 5696 5690 5687 5686 5687 5688 5686 5688 5692 5694 5699 5704 5707 5712 5718 5722 5727 5729 5734 5741 5749 5754 5760
5837 5832 5827 5823 5818 5811 5803 5795 5786 5777 5768 5759 5750 5741 5731 5722 5713 5705 5696 5687 5682 5678 5674 5673 5673 5674 5675 5676 5679 5682 5686 5689 5694 5698 5704 5708 5714 5720 5725 5731 5733 5739 5747
5833 5828 5825 5820 5813 5805 5796 5787 5778 5768 5757 5748 5739 5731 5722 5714 5704 5693 5683 5674 5669 5665 5661 5659 5659 5659 5661 5663 5667 5669 5672 5676 5679 5684 5691 5696 5703 5708 5715 5718 5722 5727 5735
5830 5826 5821 5815 5807 5798 5790 5781 5772 5764 5754 5744 5734 5724 5714 5705 5695 5684 5674 5666 5659 5653 5649 5647 5645 5647 5648 5650 5653 5657 5660 5663 5666 5670 5676 5683 5690 5695 5702 5709 5714 5718 5724
5828 5823 5817 5810 5801 5792 5783 5774 5765 5756 5746 5736 5726 5716 5708 5698 5687 5676 5666 5657 5650 5643 5639 5636 5634 5635 5636 5639 5641 5644 5648 5651 5654 5657 5662 5668 5675 5682 5688 5696 5702 5708 5715
5825 5820 5812 5804 5794 5785 5776 5768 5759 5749 5739 5729 5720 5711 5701 5692 5681 5669 5659 5649 5641 5634 5629 5627 5625 5626 5626 5629 5631 5634 5637 5640 5644 5647 5650 5655 5661 5669 5677 5684 5692 5699 5705